Weather History for Worland, WY

Change the Weather History Date:

Friday, December 14, 2012

  Actual Average Record
Temperature  
Mean Temperature 27 °F 17 °F  
Max Temperature 40 °F 30 °F 57 °F (2003)
Min Temperature 14 °F 4 °F -20 °F (1972)
Degree Days  
Heating Degree Days 38 48  
Month to date heating degree days 498 641  
Since 1 July heating degree days 1890 2533  
Cooling Degree Days 0 0  
Month to date cooling degree days 0 0  
Year to date cooling degree days 901 535  
Moisture  
Dew Point 20 °F    
Average Humidity 70    
Maximum Humidity 92    
Minimum Humidity 48    
Precipitation  
Precipitation 0.00 in 0.01 in 0.28 in (1989)
Month to date precipitation 0.04 0.11  
Year to date precipitation 2.69 7.45  
Sea Level Pressure  
Sea Level Pressure 29.76 in    
Wind  
Wind Speed 2 mph (South)    
Max Wind Speed 8 mph    
Max Gust Speed 9 mph    
Visibility 10 miles    
Events      
T = Trace of Precipitation, MM = Missing Value Source: NWS Daily Summary

Daily Weather History Graph

Daily Weather History Graph

Search for Another Location

Airport:

Trip Planner

Search our weather history database for the weather conditions in past years. The results will help you decide how hot, cold, wet, or windy it might be!

Date:

Astronomy

Dec. 14, 2012 Rise Set
Actual Time 7:39 AM MST 4:34 PM MST
Civil Twilight 7:06 AM MST 5:07 PM MST
Nautical Twilight 6:29 AM MST 5:43 PM MST
Astronomical Twilight 5:54 AM MST 6:18 PM MST
Moon 8:44 AM MST (12/14) 6:33 PM MST (12/14)
Length of Visible Light 10h 01m
Length of Day
8h 55m
Waxing Crescent, 3% of the Moon is Illuminated
Dec 14
Waxing Crescent
Dec 19
First Quarter
Dec 28
Full
Jan 4
Last Quarter
Jan 11
New

Hourly Weather History & Observations

Time (MST) Temp. Windchill Dew Point Humidity Pressure Visibility Wind Dir Wind Speed Gust Speed Precip Events Conditions
12:53 AM 19.0 °F - 16.0 °F 88% 29.88 in 10.0 mi Calm Calm - N/A   Clear
1:53 AM 19.9 °F 14.9 °F 17.1 °F 89% 29.85 in 10.0 mi South 3.5 mph - N/A   Clear
2:53 AM 19.9 °F 13.4 °F 17.1 °F 89% 29.84 in 10.0 mi SSW 4.6 mph - N/A   Clear
3:53 AM 18.0 °F - 15.1 °F 88% 29.83 in 10.0 mi Calm Calm - N/A   Clear
4:53 AM 16.0 °F 10.4 °F 12.9 °F 88% 29.84 in 10.0 mi NW 3.5 mph - N/A   Clear
5:53 AM 16.0 °F 8.8 °F 12.9 °F 88% 29.85 in 10.0 mi North 4.6 mph - N/A   Clear
6:53 AM 18.0 °F 8.7 °F 14.0 °F 84% 29.84 in 10.0 mi South 6.9 mph - N/A   Clear
7:53 AM 18.0 °F - 14.0 °F 84% 29.84 in 10.0 mi Calm Calm - N/A   Clear
8:53 AM 18.0 °F - 15.1 °F 88% 29.83 in 10.0 mi Calm Calm - N/A   Clear
9:53 AM 21.9 °F 15.7 °F 18.0 °F 85% 29.82 in 10.0 mi South 4.6 mph - N/A   Clear
10:53 AM 27.0 °F - 21.0 °F 78% 29.78 in 10.0 mi Calm Calm - N/A   Clear
11:53 AM 33.1 °F 30.0 °F 21.9 °F 64% 29.73 in 10.0 mi North 3.5 mph - N/A   Clear
12:53 PM 37.0 °F 33.3 °F 21.0 °F 52% 29.67 in 10.0 mi NNE 4.6 mph - N/A   Clear
1:53 PM 39.0 °F 36.8 °F 23.0 °F 53% 29.63 in 10.0 mi North 3.5 mph - N/A   Clear
2:53 PM 39.9 °F - 21.9 °F 49% 29.62 in 10.0 mi Calm Calm - N/A   Clear
3:53 PM 37.0 °F - 23.0 °F 57% 29.65 in 10.0 mi Calm Calm - N/A   Clear
4:53 PM 32.0 °F 27.5 °F 24.1 °F 73% 29.69 in 10.0 mi East 4.6 mph - N/A   Scattered Clouds
5:53 PM 32.0 °F - 24.1 °F 73% 29.69 in 10.0 mi Calm Calm - N/A   Mostly Cloudy
6:53 PM 32.0 °F - 24.1 °F 73% 29.69 in 10.0 mi Calm Calm - N/A   Overcast
7:53 PM 30.0 °F 25.2 °F 24.1 °F 79% 29.71 in 10.0 mi South 4.6 mph - N/A   Overcast
8:53 PM 28.9 °F - 24.1 °F 82% 29.73 in 10.0 mi Calm Calm - N/A   Overcast
9:53 PM 30.0 °F - 25.0 °F 82% 29.74 in 10.0 mi Calm Calm - N/A   Overcast
10:53 PM 30.0 °F - 25.0 °F 82% 29.74 in 10.0 mi Calm Calm - N/A   Overcast
11:53 PM 30.0 °F 26.5 °F 25.0 °F 82% 29.74 in 10.0 mi South 3.5 mph - N/A   Overcast